[[{"header":{"parameterUnit":"m.s-1","parameterCategory":1,"la1":30.2991,"la2":30.254,"lo1":-89.0895,"lo2":-89.0444,"dy":0.0017,"dx":0.0017,"nx":28,"ny":28,"refTime":"2024-12-15T09:00:00:Z","depth":0,"parameterNumber":2,"parameterNumberName":"U-component_of_WINDS"},"data":[0,0,0,0,0,0,0,0,0,0,0,0,0,0,0,0,0,0,0,0,0,0,0,0,0,0,0,0,0,0,0,0,0,0,0,0,0,0,0,0,0,0,0,0,0,0,0,0,0,0,0,0,0,0,0,0,0,0,-1.3103,-1.3103,0,-1.3112,-1.3112,-1.3112,-1.3083,-1.3082,-1.3081,-1.308,-1.3089,-1.309,-1.3091,0,0,0,0,0,0,0,0,0,0,0,0,0,-1.3062,-1.3062,-1.3103,-1.3103,-1.3104,-1.3112,-1.3112,-1.3112,-1.3083,-1.3082,-1.3081,-1.308,-1.3089,-1.309,-1.3092,0,0,0,0,0,0,0,0,0,0,0,0,0,-1.3076,-1.3063,-1.3103,-1.309,-1.3089,-1.3112,-1.3112,-1.3112,-1.3083,-1.3082,-1.3081,-1.3079,-1.3089,-1.309,-1.3092,-1.3128,0,0,-1.3097,-1.3097,0,0,0,0,0,0,0,0,-1.3075,-1.3077,-1.3092,-1.3091,-1.309,-1.3095,-1.3101,-1.3117,-1.3084,-1.3085,-1.308,-1.3079,-1.3092,-1.3093,-1.3098,-1.3128,-1.3129,-1.3097,-1.3098,-1.3098,-1.3099,0,0,0,0,0,0,0,-1.3074,-1.3077,-1.3107,-1.3092,-1.3091,-1.3083,-1.3084,-1.3104,-1.3096,-1.3085,-1.3083,-1.3084,-1.3091,-1.3097,-1.3098,-1.3129,-1.3097,-1.3098,-1.3099,-1.31,-1.3189,-1.319,0,0,0,0,0,0,-1.3075,-1.3076,-1.3106,-1.3107,-1.3079,-1.3085,-1.3086,-1.3095,-1.3096,-1.3095,-1.3086,-1.3083,-1.3094,-1.3096,-1.3098,-1.314,-1.3098,-1.31,-1.3101,-1.3187,-1.3189,-1.319,0,0,0,0,0,0,-1.3074,-1.3078,-1.3106,-1.3091,-1.3094,-1.3087,-1.3097,-1.3095,-1.3101,-1.3096,-1.3095,-1.3092,-1.3093,-1.3096,-1.3121,-1.314,-1.3101,-1.3102,-1.3186,-1.3188,-1.319,-1.3225,0,0,0,0,0,0,-1.3073,-1.3078,-1.3092,-1.3092,-1.3095,-1.3129,-1.3099,-1.3097,-1.3103,-1.31,-1.3102,-1.3101,-1.3093,-1.3118,-1.3122,-1.3142,-1.3103,-1.3184,-1.3187,-1.3189,-1.3222,-1.3228,-1.3233,0,0,0,0,0,-1.3072,-1.3102,-1.3093,-1.3096,-1.3112,-1.313,-1.3132,-1.3121,-1.3105,-1.3119,-1.3116,-1.3101,-1.3137,-1.3121,-1.3125,-1.3146,-1.3183,-1.3186,-1.3189,-1.322,-1.3227,-1.3233,0,0,0,0,0,0,-1.3105,-1.3101,-1.3091,-1.3122,-1.3126,-1.3125,-1.3142,-1.313,-1.3139,-1.3136,-1.3122,-1.3123,-1.315,-1.315,-1.3132,-1.318,-1.3157,-1.3161,-1.3179,-1.3186,-1.3192,-1.3191,-1.3105,0,0,0,0,0,-1.3115,-1.313,-1.3126,-1.3154,-1.3156,-1.3149,-1.3156,-1.3148,-1.3152,-1.3153,-1.3152,-1.3157,-1.3169,-1.3178,-1.3189,-1.3222,-1.3222,-1.3238,-1.3243,-1.3248,-1.3252,-1.3269,-1.3276,-1.3201,-1.3201,-1.3201,0,0,-1.3138,-1.3138,-1.3148,-1.316,-1.3163,-1.3178,-1.3151,-1.3168,-1.3179,-1.3156,-1.3179,-1.3178,-1.3182,-1.3211,-1.3224,-1.3212,-1.3272,-1.3252,-1.3256,-1.3257,-1.3273,-1.328,-1.3286,-1.3203,-1.3203,-1.3202,0,0,-1.3187,-1.3188,-1.3211,-1.3214,-1.3218,-1.3212,-1.3218,-1.3218,-1.3216,-1.3239,-1.3222,-1.3235,-1.3257,-1.326,-1.3265,-1.3314,-1.33,-1.3318,-1.3347,-1.3364,-1.3369,-1.3375,-1.3392,-1.3398,-1.3321,-1.3321,-1.3321,0,-1.3215,-1.3237,-1.3225,-1.3243,-1.3249,-1.3228,-1.3251,-1.3254,-1.3261,-1.3266,-1.3252,-1.3279,-1.328,-1.3309,-1.3321,-1.3325,-1.3331,-1.3318,-1.337,-1.3375,-1.3379,-1.3396,-1.3402,-1.3324,-1.3323,-1.3323,-1.3323,0,-1.327,-1.3286,-1.3304,-1.3311,-1.3319,-1.3339,-1.333,-1.3339,-1.333,-1.3326,-1.3349,-1.335,-1.336,-1.3366,-1.3358,-1.3394,-1.3387,-1.3372,-1.3348,-1.3389,-1.3404,-1.341,-1.3327,-1.3326,-1.3325,-1.3325,0,0,-1.3341,-1.334,-1.3347,-1.335,-1.3352,-1.3363,-1.3383,-1.3393,-1.3401,-1.3406,-1.3422,-1.344,-1.3426,-1.3432,-1.3423,-1.3438,-1.3476,-1.3421,-1.342,-1.3431,-1.3516,-1.3527,-1.3534,-1.3467,-1.3468,-1.3469,-1.3515,0,-1.3389,-1.3421,-1.3411,-1.3444,-1.3458,-1.3438,-1.3455,-1.3458,-1.3454,-1.3465,-1.3462,-1.3475,-1.3455,-1.3458,-1.3472,-1.3468,-1.3493,-1.3465,-1.3481,-1.3482,-1.3481,-1.3542,-1.3554,-1.3598,-1.3521,-1.3522,-1.3523,0,-1.3449,-1.3456,-1.3491,-1.349,-1.3495,-1.3511,-1.3518,-1.3529,-1.3532,-1.3529,-1.3534,-1.3522,-1.3541,-1.3517,-1.3542,-1.3523,-1.3529,-1.3528,-1.353,-1.3531,-1.3505,-1.3545,-1.3612,-1.3618,-1.3532,-1.3531,-1.353,0,-1.3496,-1.3515,-1.3538,-1.3541,-1.354,-1.3551,-1.3552,-1.3553,-1.356,-1.3567,-1.357,-1.358,-1.3585,-1.3592,-1.3583,-1.3566,-1.3609,-1.3585,-1.3606,-1.3607,-1.3617,-1.3616,-1.3685,-1.3621,-1.362,-1.362,-1.362,0,-1.3551,-1.3573,-1.3559,-1.3573,-1.3597,-1.3584,-1.3608,-1.3606,-1.3607,-1.3621,-1.3604,-1.3617,-1.3604,-1.3615,-1.3608,-1.363,-1.3632,-1.3629,-1.3627,-1.3631,-1.3631,-1.3635,-1.3631,-1.3622,-1.3622,-1.3621,-1.3621,0,-1.3608,-1.36,-1.3624,-1.3621,-1.3621,-1.3638,-1.3636,-1.3649,-1.3644,-1.366,-1.3664,-1.3656,-1.3669,-1.366,-1.3673,-1.3668,-1.3696,-1.369,-1.3695,-1.3693,-1.3715,-1.3713,-1.3789,-1.3798,-1.3728,-1.3729,-1.3729,0,-1.3644,-1.366,-1.3659,-1.3666,-1.3667,-1.368,-1.3686,-1.3674,-1.3681,-1.3685,-1.3697,-1.3708,-1.3716,-1.3737,-1.3733,-1.3742,-1.3736,-1.3762,-1.3737,-1.374,-1.3736,-1.3735,-1.3737,-1.3767,-1.3768,-1.3768,-1.3769,0,-1.3707,-1.3702,-1.3711,-1.372,-1.3727,-1.3733,-1.3738,-1.3745,-1.3733,-1.3742,-1.3754,-1.376,-1.3773,-1.3784,-1.3792,-1.3792,-1.3778,-1.3777,-1.3782,-1.3786,-1.3788,-1.3787,-1.3708,-1.3775,-1.3774,-1.3774,-1.3774,-1.3773,-1.3754,-1.3767,-1.3768,-1.3779,-1.3781,-1.3786,-1.3797,-1.3794,-1.3804,-1.3813,-1.3805,-1.382,-1.3821,-1.383,-1.3832,-1.3843,-1.3833,-1.3841,-1.3843,-1.3845,-1.3848,-1.3787,-1.3845,-1.3844,-1.3844,-1.3844,-1.3844,0,-1.3816,-1.3816,-1.3826,-1.3832,-1.3841,-1.3827,-1.3832,-1.384,-1.3853,-1.3855,-1.3864,-1.3878,-1.3888,-1.3884,-1.3893,-1.3903,-1.3897,-1.3906,-1.3905,-1.3905,-1.3857,-1.3851,-1.3911,-1.3911,-1.3911,-1.3911,-1.3911,-1.3911,-1.3849,-1.3871,-1.3866,-1.3888,-1.3887,-1.3901,-1.3905,-1.3909,-1.3911,-1.3927,-1.3935,-1.3933,-1.3932,-1.3941,-1.395,-1.3949,-1.3953,-1.3964,-1.396,-1.3915,-1.3909,-1.3902,-1.3897,-1.3965,-1.3965,-1.4007,-1.4008,-1.4008]},{"header":{"parameterUnit":"m.s-1","parameterCategory":1,"la1":30.2991,"la2":30.254,"lo1":-89.0895,"lo2":-89.0444,"dy":0.0017,"dx":0.0017,"nx":28,"ny":28,"refTime":"2024-12-15T09:00:00:Z","depth":0,"parameterNumber":3,"parameterNumberName":"V-component_of_WINDS"},"data":[0,0,0,0,0,0,0,0,0,0,0,0,0,0,0,0,0,0,0,0,0,0,0,0,0,0,0,0,0,0,0,0,0,0,0,0,0,0,0,0,0,0,0,0,0,0,0,0,0,0,0,0,0,0,0,0,0,0,-1.4682,-1.4682,0,-1.4689,-1.4689,-1.4689,-1.4673,-1.4673,-1.4672,-1.4672,-1.4679,-1.468,-1.468,0,0,0,0,0,0,0,0,0,0,0,0,0,-1.4652,-1.4653,-1.4682,-1.4682,-1.4682,-1.4689,-1.4689,-1.4689,-1.4673,-1.4673,-1.4672,-1.4671,-1.4679,-1.468,-1.468,0,0,0,0,0,0,0,0,0,0,0,0,0,-1.4663,-1.4653,-1.4682,-1.4675,-1.4674,-1.4689,-1.4689,-1.4689,-1.4673,-1.4673,-1.4672,-1.4671,-1.4679,-1.468,-1.4681,-1.4702,0,0,-1.4684,-1.4684,0,0,0,0,0,0,0,0,-1.4662,-1.4664,-1.4676,-1.4675,-1.4675,-1.4679,-1.4682,-1.4694,-1.4674,-1.4674,-1.4672,-1.4671,-1.468,-1.4681,-1.4684,-1.4703,-1.4703,-1.4684,-1.4684,-1.4685,-1.4685,0,0,0,0,0,0,0,-1.4661,-1.4663,-1.4685,-1.4676,-1.4675,-1.4671,-1.4671,-1.4684,-1.4681,-1.4674,-1.4672,-1.4674,-1.4679,-1.4683,-1.4684,-1.4703,-1.4684,-1.4685,-1.4685,-1.4686,-1.474,-1.474,0,0,0,0,0,0,-1.4662,-1.4663,-1.4684,-1.4685,-1.4666,-1.4672,-1.4673,-1.4679,-1.4681,-1.468,-1.4674,-1.4673,-1.4681,-1.4683,-1.4684,-1.4709,-1.4685,-1.4686,-1.4686,-1.4739,-1.474,-1.4741,0,0,0,0,0,0,-1.4661,-1.4664,-1.4684,-1.4674,-1.4676,-1.4673,-1.468,-1.4679,-1.4683,-1.4681,-1.4681,-1.4678,-1.4681,-1.4683,-1.4698,-1.4709,-1.4686,-1.4687,-1.4738,-1.4739,-1.474,-1.476,0,0,0,0,0,0,-1.466,-1.4664,-1.4672,-1.4674,-1.4676,-1.4698,-1.4681,-1.468,-1.4685,-1.4683,-1.4685,-1.4685,-1.468,-1.4696,-1.4699,-1.471,-1.4688,-1.4737,-1.4738,-1.474,-1.4758,-1.4762,-1.4765,0,0,0,0,0,-1.4659,-1.4678,-1.4673,-1.4675,-1.4687,-1.4699,-1.47,-1.4695,-1.4686,-1.4694,-1.4693,-1.4685,-1.4708,-1.4698,-1.4701,-1.4713,-1.4736,-1.4738,-1.474,-1.4757,-1.4761,-1.4765,0,0,0,0,0,0,-1.4678,-1.4678,-1.4672,-1.4692,-1.4695,-1.4696,-1.4707,-1.47,-1.4706,-1.4704,-1.4697,-1.4698,-1.4714,-1.4715,-1.4704,-1.4733,-1.472,-1.4723,-1.4732,-1.4736,-1.474,-1.4739,-1.4689,0,0,0,0,0,-1.4684,-1.4694,-1.4693,-1.471,-1.4712,-1.4709,-1.4714,-1.471,-1.4713,-1.4714,-1.4715,-1.4718,-1.4726,-1.4731,-1.4738,-1.4759,-1.4758,-1.4768,-1.4771,-1.4774,-1.4776,-1.4786,-1.479,-1.4747,-1.4747,-1.4747,0,0,-1.4697,-1.4698,-1.4705,-1.4714,-1.4716,-1.4726,-1.4711,-1.4722,-1.4729,-1.4716,-1.473,-1.4731,-1.4734,-1.4751,-1.4759,-1.4752,-1.4788,-1.4776,-1.4778,-1.4779,-1.4788,-1.4792,-1.4796,-1.4748,-1.4748,-1.4748,0,0,-1.4726,-1.4728,-1.4742,-1.4744,-1.4748,-1.4746,-1.4749,-1.4751,-1.475,-1.4764,-1.4755,-1.4763,-1.4777,-1.4779,-1.4782,-1.4811,-1.4804,-1.4814,-1.483,-1.484,-1.4843,-1.4846,-1.4856,-1.486,-1.4816,-1.4816,-1.4816,0,-1.4741,-1.4756,-1.475,-1.4762,-1.4766,-1.4755,-1.4769,-1.4771,-1.4777,-1.478,-1.4772,-1.4789,-1.479,-1.4808,-1.4815,-1.4818,-1.4821,-1.4813,-1.4843,-1.4846,-1.4849,-1.4858,-1.4862,-1.4817,-1.4817,-1.4817,-1.4817,0,-1.4775,-1.4785,-1.4796,-1.4801,-1.4807,-1.4819,-1.4815,-1.4821,-1.4816,-1.4814,-1.4828,-1.483,-1.4837,-1.4841,-1.4836,-1.4857,-1.4853,-1.4845,-1.4831,-1.4854,-1.4863,-1.4866,-1.4819,-1.4818,-1.4818,-1.4818,0,0,-1.4816,-1.4817,-1.4821,-1.4823,-1.4826,-1.4833,-1.4845,-1.4852,-1.4857,-1.4861,-1.487,-1.4882,-1.4874,-1.4878,-1.4873,-1.4882,-1.4904,-1.4872,-1.4872,-1.4877,-1.4926,-1.4932,-1.4936,-1.4899,-1.4899,-1.49,-1.4926,0,-1.4843,-1.4864,-1.4859,-1.4879,-1.4887,-1.4877,-1.4887,-1.4889,-1.4888,-1.4895,-1.4893,-1.4902,-1.4891,-1.4893,-1.4901,-1.4899,-1.4913,-1.4897,-1.4907,-1.4907,-1.4906,-1.4941,-1.4947,-1.4972,-1.4929,-1.493,-1.493,0,-1.4879,-1.4884,-1.4905,-1.4905,-1.4909,-1.4918,-1.4923,-1.493,-1.4933,-1.4931,-1.4935,-1.4928,-1.4939,-1.4926,-1.4941,-1.493,-1.4934,-1.4933,-1.4934,-1.4935,-1.492,-1.4942,-1.498,-1.4983,-1.4935,-1.4935,-1.4934,0,-1.4906,-1.4918,-1.4932,-1.4934,-1.4935,-1.4941,-1.4942,-1.4944,-1.4948,-1.4952,-1.4955,-1.4961,-1.4964,-1.4968,-1.4964,-1.4954,-1.4979,-1.4965,-1.4977,-1.4978,-1.4983,-1.4983,-1.5022,-1.4986,-1.4986,-1.4986,-1.4986,0,-1.4937,-1.495,-1.4944,-1.4952,-1.4966,-1.496,-1.4974,-1.4973,-1.4975,-1.4982,-1.4974,-1.4981,-1.4975,-1.4981,-1.4978,-1.499,-1.4992,-1.499,-1.4989,-1.4991,-1.4991,-1.4993,-1.4991,-1.4987,-1.4987,-1.4986,-1.4986,0,-1.497,-1.4966,-1.498,-1.498,-1.498,-1.499,-1.4989,-1.4997,-1.4995,-1.5005,-1.5007,-1.5003,-1.501,-1.5006,-1.5014,-1.5011,-1.5027,-1.5024,-1.5027,-1.5026,-1.5038,-1.5036,-1.5079,-1.5084,-1.5046,-1.5046,-1.5046,0,-1.499,-1.5,-1.5,-1.5004,-1.5006,-1.5013,-1.5017,-1.5011,-1.5015,-1.5018,-1.5025,-1.5032,-1.5037,-1.5049,-1.5047,-1.5053,-1.505,-1.5064,-1.505,-1.5052,-1.5049,-1.5048,-1.5049,-1.5067,-1.5067,-1.5067,-1.5068,0,-1.5026,-1.5023,-1.5029,-1.5035,-1.504,-1.5043,-1.5046,-1.5051,-1.5044,-1.505,-1.5057,-1.5061,-1.5068,-1.5075,-1.508,-1.508,-1.5073,-1.5072,-1.5075,-1.5077,-1.5078,-1.5077,-1.5034,-1.5071,-1.5071,-1.5071,-1.507,-1.507,-1.5053,-1.506,-1.5062,-1.5068,-1.507,-1.5073,-1.508,-1.5078,-1.5084,-1.5089,-1.5085,-1.5094,-1.5095,-1.5101,-1.5102,-1.5108,-1.5103,-1.5107,-1.5108,-1.5109,-1.5111,-1.5077,-1.5109,-1.5109,-1.5109,-1.5109,-1.5109,0,-1.5088,-1.5088,-1.5094,-1.5098,-1.5104,-1.5096,-1.5099,-1.5104,-1.5111,-1.5113,-1.5118,-1.5126,-1.5132,-1.513,-1.5136,-1.5141,-1.5138,-1.5143,-1.5142,-1.5142,-1.5116,-1.5112,-1.5145,-1.5145,-1.5145,-1.5145,-1.5145,-1.5145,-1.5107,-1.5119,-1.5117,-1.513,-1.5129,-1.5138,-1.514,-1.5142,-1.5143,-1.5153,-1.5158,-1.5156,-1.5156,-1.5162,-1.5167,-1.5166,-1.5168,-1.5174,-1.5172,-1.5148,-1.5144,-1.5141,-1.5137,-1.5175,-1.5175,-1.5198,-1.5198,-1.5198]}]]